This demonstration page uses our WeatherBlox Daily Observations layout. Learn more.

Hourly Observations for December 16, 2019

Temp ( °F °C ) Dew Point ( °F °C ) Humidity (%) Winds ( mph kmh ) Pressure ( in mb ) Visibility ( mi km ) Precip ( " mm )
12:15 am 00:15 Clear 12 -10.9 11 -11.6 95 95 Calm 30.22 1023 7 11.26538 0 0
12:35 am 00:35 Clear 14 -10.2 13 -10.8 95 95 W 3 6 30.23 1024 7 11.26538 0 0
12:55 am 00:55 Clear 16 -9.1 15 -9.6 96 96 Calm 30.21 1023 7 11.26538 0 0
1:15 am 01:15 Clear 17 -8.5 16 -9 96 96 WNW 6 9 30.2 1023 7 11.26538 0 0
1:35 am 01:35 Clear 17 -8.5 16 -9 96 96 NW 6 9 30.2 1023 7 11.26538 0 0
1:55 am 01:55 Clear 18 -8 17 -8.5 96 96 NW 7 11 30.2 1023 7 11.26538 0 0
2:15 am 02:15 Cloudy with Mist and Fog 22 -5.4 22 -5.6 99 99 NW 6 9 30.2 1023 0.75 1.207005 0 0
2:35 am 02:35 Cloudy with Mist and Fog 23 -5 23 -5.2 99 99 WNW 5 7 30.21 1023 1 1.60934 0 0
2:55 am 02:55 Cloudy with Mist and Fog 23 -5 23 -5.2 99 99 NW 5 7 30.21 1023 1 1.60934 0 0
3:15 am 03:15 Cloudy with Mist and Fog 24 -4.6 24 -4.7 99 99 WNW 7 11 30.22 1023 1 1.60934 0 0
3:35 am 03:35 Cloudy with Mist and Fog N/A N/A N/A WNW 6 9 N/A 1.25 2.011675 0 0
3:55 am 03:55 Cloudy with Mist and Fog N/A N/A N/A WNW 5 7 N/A 1.25 2.011675 0 0
4:15 am 04:15 Cloudy with Mist and Fog N/A N/A N/A WNW 6 9 N/A 1.5 2.41401 0 0
4:35 am 04:35 Cloudy with Mist and Fog N/A N/A N/A WNW 5 7 N/A 2 3.21868 0 0
4:55 am 04:55 Cloudy with Haze N/A N/A N/A NW 3 6 N/A 4 6.43736 0 0
5:15 am 05:15 Cloudy with Haze N/A N/A N/A NW 5 7 N/A 4 6.43736 0 0
5:35 am 05:35 Cloudy with Mist and Fog N/A N/A N/A NW 3 6 N/A 3 4.82802 0 0
5:55 am 05:55 Cloudy with Mist and Fog N/A N/A N/A NW 5 7 N/A 2.5 4.02335 0 0
6:15 am 06:15 Cloudy with Mist and Fog N/A N/A N/A NNW 6 9 N/A 2.5 4.02335 0 0
6:35 am 06:35 Cloudy with Mist and Fog N/A N/A N/A NW 5 7 N/A 2 3.21868 0 0
6:55 am 06:55 Cloudy with Mist and Fog N/A N/A N/A NW 3 6 N/A 2.5 4.02335 0 0
7:15 am 07:15 Hazy N/A N/A N/A NW 6 9 N/A 5 8.0467 0 0
7:35 am 07:35 Mostly Cloudy with Mist and Fog N/A N/A N/A NW 3 6 N/A 2.5 4.02335 0 0
7:55 am 07:55 Hazy N/A N/A N/A NW 5 7 N/A 4 6.43736 0 0
8:15 am 08:15 Sunny with Mist and Fog N/A N/A N/A Calm N/A 3 4.82802 0 0
8:35 am 08:35 Hazy N/A N/A N/A NW 6 9 N/A 5 8.0467 0 0
8:55 am 08:55 Sunny N/A N/A N/A Calm N/A 7 11.26538 0 0
9:15 am 09:15 Sunny N/A N/A N/A NW 3 6 N/A 7 11.26538 0 0
9:35 am 09:35 Sunny N/A N/A N/A Calm N/A 10 16.0934 0 0
9:55 am 09:55 Sunny N/A N/A N/A NNW 3 6 N/A 10 16.0934 0 0
10:15 am 10:15 Sunny N/A N/A N/A NNW 3 6 N/A 10 16.0934 0 0
10:35 am 10:35 Sunny 23 -5 23 -5.2 99 99 NNW 5 7 30.31 1027 10 16.0934 0 0
10:55 am 10:55 Sunny 22 -5.3 22 -5.5 99 99 NNW 3 6 30.32 1027 10 16.0934 0 0
11:15 am 11:15 Sunny 23 -5.2 22 -5.4 99 99 NW 3 6 30.32 1027 10 16.0934 0 0
11:35 am 11:35 Sunny 24 -4.5 24 -4.7 99 99 NW 5 7 30.31 1026 10 16.0934 0 0
11:55 am 11:55 Sunny 26 -3.2 26 -3.6 97 97 NNW 8 13 30.29 1026 10 16.0934 0 0
12:15 pm 12:15 Sunny 29 -1.5 27 -3 90 90 NNW 8 13 30.27 1025 10 16.0934 0 0
12:35 pm 12:35 Sunny 30 -1 26 -3.4 84 84 NNW 8 13 30.27 1025 10 16.0934 0 0
12:55 pm 12:55 Sunny 30 -1 25 -3.7 82 82 NW 9 15 30.27 1025 10 16.0934 0 0
1:15 pm 13:15 Sunny 31 -0.7 26 -3.5 82 82 NNW 6 9 30.26 1025 10 16.0934 0 0
1:35 pm 13:35 Sunny 31 -0.5 26 -3.4 81 81 Calm 30.26 1025 10 16.0934 0 0
1:55 pm 13:55 Sunny 32 -0.1 26 -3.2 80 80 NW 5 7 30.26 1025 10 16.0934 0 0
2:15 pm 14:15 Sunny 32 0 26 -3.6 77 77 WNW 3 6 30.26 1025 10 16.0934 0 0
2:35 pm 14:35 Sunny 32 0.1 26 -3.3 78 78 NW 6 9 30.25 1025 10 16.0934 0 0
2:55 pm 14:55 Sunny 33 0.5 26 -3.3 76 76 Calm 30.25 1024 10 16.0934 0 0
3:15 pm 15:15 Sunny 33 0.7 27 -2.9 77 77 NW 6 9 30.25 1024 10 16.0934 0 0
3:35 pm 15:35 Sunny 33 0.8 27 -2.6 78 78 NW 7 11 30.26 1025 10 16.0934 0 0
3:55 pm 15:55 Sunny 33 0.7 27 -2.6 79 79 NW 6 9 30.27 1025 10 16.0934 0 0
4:15 pm 16:15 Sunny 33 0.5 27 -2.7 79 79 NW 5 7 30.28 1025 10 16.0934 0 0
4:35 pm 16:35 Sunny 32 0.2 28 -2.5 82 82 NNW 6 9 30.28 1026 10 16.0934 0 0
4:55 pm 16:55 Sunny 31 -0.5 27 -2.9 84 84 NW 3 6 30.3 1026 10 16.0934 0 0
5:15 pm 17:15 Clear 29 -1.5 26 -3.1 89 89 Calm 30.32 1027 10 16.0934 0 0
5:35 pm 17:35 Clear 28 -2.5 25 -3.7 92 92 NW 3 6 30.33 1027 10 16.0934 0 0
5:55 pm 17:55 Clear 28 -2.4 25 -3.7 91 91 NW 6 9 30.34 1027 10 16.0934 0 0
6:15 pm 18:15 Clear 27 -3 24 -4.3 91 91 NW 7 11 30.34 1028 10 16.0934 0 0
6:35 pm 18:35 Clear 25 -3.8 23 -5 91 91 NW 5 7 30.36 1028 10 16.0934 0 0
6:55 pm 18:55 Clear 25 -3.7 23 -5 91 91 WNW 6 9 30.36 1028 10 16.0934 0 0
7:15 pm 19:15 Clear 24 -4.7 21 -6.1 90 90 WNW 6 9 30.37 1028 10 16.0934 0 0
7:35 pm 19:35 Clear 23 -5.2 20 -6.5 91 91 WNW 6 9 30.38 1029 10 16.0934 0 0
7:55 pm 19:55 Clear 24 -4.6 22 -5.8 91 91 WNW 7 11 30.38 1029 10 16.0934 0 0
8:15 pm 20:15 Clear 23 -5 21 -6.2 91 91 WNW 6 9 30.38 1029 10 16.0934 0 0
8:35 pm 20:35 Clear 23 -4.8 21 -6.2 90 90 WNW 6 9 30.38 1029 10 16.0934 0 0
8:55 pm 20:55 Clear 24 -4.7 20 -6.6 87 87 WNW 5 7 30.38 1029 10 16.0934 0 0
9:15 pm 21:15 Clear 23 -4.9 21 -6.1 91 91 WNW 8 13 30.38 1029 10 16.0934 0 0
9:35 pm 21:35 Clear 24 -4.3 21 -6 88 88 WNW 8 13 30.38 1029 10 16.0934 0 0
9:55 pm 21:55 Clear 24 -4.2 21 -6.2 86 86 WNW 8 13 30.38 1029 10 16.0934 0 0
10:15 pm 22:15 Clear 24 -4.5 20 -6.7 85 85 WNW 6 9 30.38 1029 10 16.0934 0 0
10:35 pm 22:35 Clear 23 -4.8 19 -7 85 85 WNW 7 11 30.38 1029 10 16.0934 0 0
10:55 pm 22:55 Clear 23 -5 19 -7.4 83 83 NW 8 13 30.39 1029 10 16.0934 0 0
11:15 pm 23:15 Clear 23 -5 19 -7.5 83 83 WNW 9 15 30.39 1029 10 16.0934 0 0
11:35 pm 23:35 Clear 22 -5.3 18 -7.9 82 82 WNW 8 13 30.4 1029 10 16.0934 0 0
11:55 pm 23:55 Clear 22 -5.5 17 -8.1 82 82 WNW 8 13 30.41 1030 10 16.0934 0 0

Powered by AerisWeather